Lake James Weather Center

Moon Phase Calendar



Lake James Water Level
Online Cameras

 


      

Current Conditions in Angola
1/20/2021 3:04:50 PM

25°F
Feels Like 12
Clouds
Humidity
68%
Pressure
30.06"
Wind
13.8 mph (SSW)
Dew Point
17°F
UV Index
1/10 (Low)
Visibility
6 mi

Hourly Forecast

Date & Time Wed, Jan 20
3:00 PM
Wed, Jan 20
4:00 PM
Wed, Jan 20
5:00 PM
Wed, Jan 20
6:00 PM
Wed, Jan 20
7:00 PM
Wed, Jan 20
8:00 PM
Wed, Jan 20
9:00 PM
Wed, Jan 20
10:00 PM
Wed, Jan 20
11:00 PM
Thu, Jan 21
12:00 AM
Thu, Jan 21
1:00 AM
Thu, Jan 21
2:00 AM
Thu, Jan 21
3:00 AM
Thu, Jan 21
4:00 AM
Thu, Jan 21
5:00 AM
Thu, Jan 21
6:00 AM
Thu, Jan 21
7:00 AM
Thu, Jan 21
8:00 AM
Thu, Jan 21
9:00 AM
Thu, Jan 21
10:00 AM
Thu, Jan 21
11:00 AM
Thu, Jan 21
12:00 PM
Thu, Jan 21
1:00 PM
Thu, Jan 21
2:00 PM
Thu, Jan 21
3:00 PM
Thu, Jan 21
4:00 PM
Thu, Jan 21
5:00 PM
Thu, Jan 21
6:00 PM
Thu, Jan 21
7:00 PM
Thu, Jan 21
8:00 PM
Thu, Jan 21
9:00 PM
Thu, Jan 21
10:00 PM
Thu, Jan 21
11:00 PM
Fri, Jan 22
12:00 AM
Fri, Jan 22
1:00 AM
Fri, Jan 22
2:00 AM
Fri, Jan 22
3:00 AM
Fri, Jan 22
4:00 AM
Fri, Jan 22
5:00 AM
Fri, Jan 22
6:00 AM
Fri, Jan 22
7:00 AM
Fri, Jan 22
8:00 AM
Fri, Jan 22
9:00 AM
Fri, Jan 22
10:00 AM
Fri, Jan 22
11:00 AM
Fri, Jan 22
12:00 PM
Fri, Jan 22
1:00 PM
Fri, Jan 22
2:00 PM
Condition
Clouds

Clouds

Clouds

Clouds

Clouds

Clear

Clear

Clear

Clear

Clear

Clouds

Clouds

Clouds

Clouds

Clouds

Clouds

Clouds

Clear

Clear

Clear

Clear

Clear

Clear

Clear

Clear

Clear

Clear

Clear

Clouds

Clouds

Clouds

Clouds

Clouds

Clouds

Clouds

Snow

Clouds

Clouds

Clouds

Clouds

Snow

Clouds

Snow

Clouds

Clouds

Clouds

Clouds

Clouds
Temperature 25°F25°F24°F22°F22°F23°F24°F25°F26°F27°F28°F29°F30°F30°F30°F29°F28°F27°F28°F30°F31°F32°F33°F34°F34°F33°F32°F30°F30°F30°F30°F29°F29°F29°F28°F27°F27°F26°F25°F24°F22°F21°F22°F22°F22°F23°F23°F24°F
Feels Like 13°F12°F12°F11°F9°F9°F10°F10°F11°F12°F13°F15°F16°F16°F16°F17°F16°F15°F15°F16°F17°F18°F19°F18°F18°F18°F18°F17°F17°F17°F16°F17°F17°F15°F15°F14°F13°F12°F11°F10°F9°F9°F9°F9°F10°F10°F11°F11°F
Cloudiness 20%59%82%75%66%0%0%0%0%1%16%93%96%97%97%98%98%6%3%2%2%1%1%0%0%0%0%8%20%93%95%96%96%96%96%100%99%98%99%99%99%90%95%97%98%98%98%100%
Visibility 6 mi6 mi6 mi6 mi6 mi6 mi6 mi6 mi6 mi6 mi6 mi6 mi6 mi6 mi6 mi6 mi6 mi6 mi6 mi6 mi6 mi6 mi6 mi6 mi6 mi6 mi6 mi6 mi6 mi6 mi5 mi6 mi6 mi1 mi1 mi1 mi3 mi3 mi1 mi6 mi1 mi1 mi1 mi2 mi2 mi2 mi3 mi5 mi
Precipitation 0%0%0%0%0%0%0%0%0%0%0%0%0%0%0%0%0%0%0%0%0%0%0%0%0%0%0%0%0%0%0%0%0%0%0%30%29%33%25%36%36%12%33%4%4%0%0%0%
Humidity 68%81%89%93%94%93%92%92%92%93%94%95%95%96%96%97%97%97%96%95%95%93%90%89%89%90%93%94%95%95%96%96%95%96%96%97%95%94%95%93%96%95%95%93%93%93%92%92%
Dew Point 17°F21°F22°F21°F21°F17°F18°F18°F19°F21°F23°F25°F26°F27°F27°F27°F26°F25°F25°F25°F26°F27°F28°F28°F27°F26°F26°F25°F25°F25°F26°F26°F25°F26°F25°F25°F23°F21°F21°F18°F19°F18°F18°F16°F17°F17°F17°F17°F
Pressure 30.06"30.06"30.03"30"29.97"29.94"29.91"29.85"29.83"29.77"29.77"29.74"29.71"29.71"29.71"29.71"29.71"29.71"29.71"29.71"29.71"29.71"29.68"29.68"29.68"29.68"29.68"29.71"29.74"29.74"29.77"29.77"29.77"29.8"29.8"29.8"29.83"29.83"29.85"29.88"29.91"29.94"30"30.03"30.06"30.06"30.06"30.06"
Wind Speed 12.1 mph15 mph13.1 mph12 mph15.2 mph17.7 mph17.2 mph18.9 mph18.7 mph19 mph20 mph19.1 mph18.6 mph18.1 mph17.3 mph15.1 mph14.4 mph13.8 mph15.2 mph17.7 mph18.2 mph18.5 mph19.4 mph20.5 mph20.6 mph19.4 mph17.2 mph15.8 mph15.5 mph16.6 mph16.9 mph15.5 mph14.9 mph17.2 mph17.1 mph16.6 mph16.8 mph17 mph16.6 mph16 mph14.5 mph13.8 mph13.9 mph13.8 mph14 mph13.8 mph13.9 mph14.1 mph
Wind
Direction
212°
SSW
219°
SW
217°
SW
206°
SSW
200°
SSW
205°
SSW
215°
SW
217°
SW
223°
SW
225°
SW
230°
SW
239°
WSW
248°
WSW
250°
WSW
255°
WSW
258°
WSW
259°
W
257°
WSW
256°
WSW
260°
W
263°
W
263°
W
263°
W
263°
W
268°
W
272°
W
275°
W
280°
W
282°
WNW
280°
W
280°
W
279°
W
280°
W
285°
WNW
288°
WNW
287°
WNW
288°
WNW
292°
WNW
298°
WNW
295°
WNW
314°
NW
319°
NW
315°
NW
317°
NW
311°
NW
308°
NW
306°
NW
304°
NW

Daily Forecast

Date High Low Precip. Humidity
Today
Jan 20

Snow
28 °F
21 °F
97%
94%
Thursday
Jan 21

Clear
34 °F
27 °F
0%
93%
Friday
Jan 22

Snow
29 °F
19 °F
36%
92%
Saturday
Jan 23

Clear
24 °F
16 °F
0%
84%
Sunday
Jan 24

Snow
30 °F
21 °F
100%
90%
Monday
Jan 25

Snow
30 °F
24 °F
100%
95%
Tuesday
Jan 26

Clouds
23 °F
19 °F
0%
91%
Wednesday
Jan 27

Clouds
22 °F
16 °F
0%
91%
Thursday
Jan 28

Clear
23 °F
14 °F
0%
89%
Friday
Jan 29

Clouds
26 °F
17 °F
0%
92%
Saturday
Jan 30

Snow
35 °F
23 °F
100%
88%
Sunday
Jan 31

Snow
36 °F
33 °F
100%
99%
Monday
Feb 1

Clouds
31 °F
27 °F
58%
93%
Tuesday
Feb 2

Clear
34 °F
24 °F
0%
88%
Wednesday
Feb 3

Clouds
38 °F
29 °F
0%
75%
Thursday
Feb 4

Rain
40 °F
32 °F
100%
96%


Temperature 8-14 Day Outlook



Precipitation 8-14 Day Outlook




Quick Links
Lake James News
Lake James Photos
Lake James Videos




About Us
Contact Us
Site Map
Search Site
Advertise With Us
   
James-IN.LakesOnline.com
THE LAKE JAMES WEBSITE

Copyright 2021, Lakes Online
Privacy    |    Legal